Skip Page Navigation
NASA JPL Caltech
NASA Logo - Jet Propulsion Laboratory + View the NASA Portal
+ Center for Near-Earth Object Studies
JPL Home Earth Solar System Stars & Galaxies Technology
JPL Solar System Dynamics
BODIES ORBITS EPHEMERIDES TOOLS PHYSICAL DATA DISCOVERY FAQ SITE MAP
JPL Small-Body Database Browser
Search: [ help ]  
117453 (2005 AG58)
Classification: Main-belt Asteroid          SPK-ID: 2117453
Ephemeris | Orbit Diagram | Orbital Elements | Mission Design | Physical Parameters | Discovery Circumstances | Close-Approach Data ]

[ show orbit diagram ]
Orbital Elements at Epoch 2459000.5 (2020-May-31.0) TDB
Reference: JPL 22 (heliocentric ecliptic J2000)
 Element Value Uncertainty (1-sigma)   Units 
e .1537812956048758 3.168e-08  
a 2.842071050728205 1.6857e-08 au
q 2.405013682346111 8.8833e-08 au
i 3.102058154823465 3.9202e-06 deg
node 74.31727885470202 9.7034e-05 deg
peri 21.81201778520166 9.8974e-05 deg
M 88.58959836273621 1.9066e-05 deg
tp 2458569.843451687322
(2019-Mar-27.34345169)
9.1778e-05 TDB
period 1750.051476221362
4.79
1.557e-05
4.263e-08
d
yr
n .2057082348099251 1.8302e-09 deg/d
Q 3.2791284191103 1.945e-08 au
  Orbit Determination Parameters
   # obs. used (total)      626  
   data-arc span      21770 days (59.60 yr)  
   first obs. used      1960-10-17  
   last obs. used      2020-05-25  
   planetary ephem.      DE431  
   SB-pert. ephem.      SB431-N16  
   condition code      0  
   norm. resid. RMS      .49534  
   source      ORB  
   producer      Otto Matic  
   solution date      2020-Nov-12 18:18:35  

Additional Information
 Earth MOID = 1.42215 au 
 Jupiter MOID = 1.89471 au 
 T_jup = 3.289 
[ show covariance matrix ]

Ephemeris | Orbit Diagram | Orbital Elements | Mission Design | Physical Parameters | Discovery Circumstances | Close-Approach Data ]

Physical Parameter Table
Parameter Symbol Value Units Sigma Reference Notes
absolute magnitude H 15.5   n/a MPO432679  

117453 (2005 AG58)          Discovered 2005-Jan-15 by LINEAR at Socorro
Reference: 20051019/Numbers.arcLast Updated: 2005-10-26

[ show close-approach data ]
Alternate Designations
 2005 AG58 = 2000 AM20 = 2001 FG167 
Ephemeris | Orbit Diagram | Orbital Elements | Mission Design | Physical Parameters | Discovery Circumstances | Close-Approach Data ]
ABOUT SSD CREDITS/AWARDS PRIVACY/COPYRIGHT GLOSSARY LINKS
FirstGov 2020-Dec-03 23:49 UT
(server date/time)  
NASA Home Page
Site Manager:   Ryan S. Park
Webmaster  Alan B. Chamberlin